Weather History for Faith, SD

Change the Weather History Date:

Sunday, April 14, 2013

  Actual Average Record
Temperature  
Mean Temperature 28 °F 44 °F  
Max Temperature 31 °F 56 °F 80 °F (2008)
Min Temperature 24 °F 32 °F 20 °F (2014)
Degree Days  
Heating Degree Days 37 21  
Month to date heating degree days 423 331  
Since 1 July heating degree days 6832 7022  
Cooling Degree Days 0 0  
Month to date cooling degree days 0 0  
Year to date cooling degree days 0 0  
Moisture  
Dew Point 27 °F    
Average Humidity 93    
Maximum Humidity 100    
Minimum Humidity 85    
Precipitation  
Precipitation 0.09 in 0.04 in 0.35 in (2011)
Month to date precipitation 0.62 0.54  
Year to date precipitation 1.62 2.14  
Sea Level Pressure  
Sea Level Pressure 29.58 in    
Wind  
Wind Speed 17 mph (NNE)    
Max Wind Speed 28 mph    
Max Gust Speed 35 mph    
T = Trace of Precipitation, MM = Missing Value Source: NWS Daily Summary

Daily Weather History Graph

Daily Weather History Graph

Search for Another Location

Airport:

Trip Planner

Search our weather history database for the weather conditions in past years. The results will help you decide how hot, cold, wet, or windy it might be!

Date:

Astronomy

Apr. 14, 2013 Rise Set
Actual Time 6:04 AM MDT 7:32 PM MDT
Civil Twilight 5:33 AM MDT 8:03 PM MDT
Nautical Twilight 4:57 AM MDT 8:40 PM MDT
Astronomical Twilight 4:17 AM MDT 9:20 PM MDT
Moon 8:35 AM MDT (4/14) 11:55 PM MDT (4/14)
Length of Visible Light 14h 29m
Length of Day
13h 28m
Waxing Crescent, 17% of the Moon is Illuminated
Apr 14
Waxing Crescent
Apr 18
First Quarter
Apr 25
Full
May 2
Last Quarter
May 9
New

Hourly Weather History & Observations

Time (MDT) Temp. Windchill Dew Point Humidity Pressure Visibility Wind Dir Wind Speed Gust Speed Precip Events Conditions
12:56 AM 30.0 °F 16.3 °F 30.0 °F 100% 29.51 in - East 24.2 mph 32.2 mph N/A   Unknown
1:56 AM 30.9 °F 18.1 °F 30.9 °F 100% 29.49 in - East 21.9 mph 28.8 mph N/A   Unknown
2:56 AM 30.9 °F 19.1 °F 30.9 °F 100% 29.51 in - ESE 18.4 mph 27.6 mph 0.02 in   Unknown
3:56 AM 30.9 °F 18.4 °F 30.9 °F 100% 29.49 in - ESE 20.7 mph 27.6 mph 0.01 in   Unknown
4:56 AM 30.0 °F 19.1 °F 30.0 °F 100% 29.50 in - ESE 15.0 mph - N/A   Unknown
5:56 AM 30.0 °F 21.1 °F 30.0 °F 100% 29.49 in - East 10.4 mph 20.7 mph N/A   Unknown
6:56 AM 30.0 °F 20.5 °F 30.0 °F 100% 29.50 in - East 11.5 mph - 0.01 in   Unknown
7:56 AM 30.0 °F 21.1 °F 30.0 °F 100% 29.49 in - ENE 10.4 mph - 0.01 in   Unknown
8:56 AM 30.0 °F 20.5 °F 30.0 °F 100% 29.50 in - NE 11.5 mph - N/A   Unknown
9:56 AM 28.9 °F 17.7 °F 28.9 °F 100% 29.50 in - NNE 15.0 mph - N/A   Unknown
10:56 AM 28.9 °F 17.7 °F 28.9 °F 100% 29.52 in - NNE 15.0 mph - N/A   Unknown
11:56 AM 28.9 °F 18.2 °F 28.0 °F 96% 29.52 in - NNE 13.8 mph - N/A   Unknown
12:56 PM 28.0 °F 17.0 °F 27.0 °F 96% 29.54 in - North 13.8 mph - N/A   Unknown
1:56 PM 28.0 °F 17.0 °F 27.0 °F 96% 29.55 in - North 13.8 mph - 0.02 in   Unknown
2:56 PM 28.0 °F 16.5 °F 27.0 °F 96% 29.57 in - North 15.0 mph - 0.01 in   Unknown
3:56 PM 28.0 °F 14.9 °F 25.0 °F 88% 29.58 in - NNW 19.6 mph - 0.01 in   Unknown
4:56 PM 27.0 °F 13.9 °F 25.0 °F 92% 29.61 in - NNW 18.4 mph - N/A   Unknown
5:56 PM 26.1 °F 12.7 °F 24.1 °F 92% 29.65 in - NNW 18.4 mph - N/A   Unknown
6:56 PM 25.0 °F 12.2 °F 23.0 °F 92% 29.68 in - NNW 16.1 mph 26.5 mph N/A   Unknown
7:56 PM 24.1 °F 10.6 °F 23.0 °F 96% 29.70 in - NW 17.3 mph - N/A   Unknown
8:56 PM 24.1 °F 9.8 °F 23.0 °F 96% 29.73 in - NW 19.6 mph - N/A   Unknown
9:56 PM 25.0 °F 10.2 °F 24.1 °F 96% 29.75 in - NW 21.9 mph 28.8 mph N/A   Unknown
10:56 PM 25.0 °F 9.9 °F 24.1 °F 96% 29.77 in - NW 23.0 mph 29.9 mph N/A   Unknown
11:56 PM 25.0 °F 10.6 °F 24.1 °F 96% 29.78 in - NW 20.7 mph 32.2 mph N/A   Unknown